Big River (Missouri), Byrnesville (07018500)

StateMissouriLatestUnknown (1340 cfs)
RiverBig RiverRatingObservedEstimated
Updated2026-05-10 6:45 (40 minutes ago)Flood - The river is flooding. Obstacles can be treacherous or deadly. The river should be avoided at this stage for casual trips and definitely for the inexperienced. Trips should be attempted only with protective gear and equipment.Flood(none)(none)
Discharge1340 cfs (median: 718 cfs)High - The river is high and potentially dangerous, especially for the young and / or inexperienced. Normal stream obstacles are sometimes difficult to navigate. Extended distances can be attempted, but canoe travel may not be advisable.High(none)(none)
Height5.93 feetGood - Conditions are ideal for a canoe or kayak. Boats typically will drag on fewer than one-quarter of riffles, if at all, and portages are unnecessary or rare. Normal float lengths can be attempted without a problem.Good(none)(none)
TrendRising (rising over 24 hours)Low - River is low but can still be floated. Some riffles are okay but most come with significant dragging and might need a portage. Float lengths should be reduced to accommodate low flow, dragging, and portages.Low(none)(none)
USGSExternal icon USGS Site (External icon Duck Duck Go Maps)Poor - River is too low to float comfortably. Most or all riffles will drag or must be portaged and some obstacles (such as slick shelf rock) cause undue problems. Avoid the river at this stage for casual paddling trips.Poor(none)(none)

Trending Data

Plot Image

Trips for Big River (Missouri), Byrnesville (07018500)

DateStartEndDistanceConditionDischargeHeightFishingDetails

A total of 0 rows are displayed.

Condition Descriptions

Fishing Conditions

Fish Species

Notes

Classic Trip List

The classic River Trips application is still available for use. It is updated with the new system using a data retrofit. It is no longer maintained. The original River Trips application is no longer updated (as of 1 Dec 2016) but can be checked for errors or for the condition of the data before it was converted to the new system.

Gauge Data Table

ObservationHeightDischargeMaximum
Discharge
Minimum
Discharge
Mean
Discharge
P05P10P20P25P50
(Median)
P75P80P90P95
2026-05-10 06:45 5.93 1340 22500 (2009) 168 (1981) 1710 208 261 369 404 718 1220 1650 2940 6220
2026-05-10 05:45 5.88 1320 22500 (2009) 168 (1981) 1710 208 261 369 404 718 1220 1650 2940 6220
2026-05-10 04:45 5.82 1300 22500 (2009) 168 (1981) 1710 208 261 369 404 718 1220 1650 2940 6220
2026-05-10 03:45 5.76 1270 22500 (2009) 168 (1981) 1710 208 261 369 404 718 1220 1650 2940 6220
2026-05-10 02:45 5.69 1240 22500 (2009) 168 (1981) 1710 208 261 369 404 718 1220 1650 2940 6220
2026-05-10 01:45 5.62 1210 22500 (2009) 168 (1981) 1710 208 261 369 404 718 1220 1650 2940 6220
2026-05-10 00:45 5.56 1190 22500 (2009) 168 (1981) 1710 208 261 369 404 718 1220 1650 2940 6220
2026-05-09 23:45 5.50 1170 22500 (2009) 168 (1981) 1710 208 261 369 404 718 1220 1650 2940 6220
2026-05-09 22:45 5.45 1150 23800 (1961) 157 (1981) 1730 199 269 373 423 772 1450 1760 3790 7980
2026-05-09 21:45 5.42 1130 23800 (1961) 157 (1981) 1730 199 269 373 423 772 1450 1760 3790 7980
2026-05-09 20:45 5.39 1120 23800 (1961) 157 (1981) 1730 199 269 373 423 772 1450 1760 3790 7980
2026-05-09 19:45 5.38 1120 23800 (1961) 157 (1981) 1730 199 269 373 423 772 1450 1760 3790 7980
2026-05-09 18:45 5.35 1110 23800 (1961) 157 (1981) 1730 199 269 373 423 772 1450 1760 3790 7980
2026-05-09 17:45 5.35 1110 23800 (1961) 157 (1981) 1730 199 269 373 423 772 1450 1760 3790 7980
2026-05-09 16:45 5.35 1110 23800 (1961) 157 (1981) 1730 199 269 373 423 772 1450 1760 3790 7980
2026-05-09 15:45 5.36 1110 23800 (1961) 157 (1981) 1730 199 269 373 423 772 1450 1760 3790 7980
2026-05-09 14:45 5.37 1110 23800 (1961) 157 (1981) 1730 199 269 373 423 772 1450 1760 3790 7980
2026-05-09 13:45 5.39 1120 23800 (1961) 157 (1981) 1730 199 269 373 423 772 1450 1760 3790 7980
2026-05-09 12:45 5.39 1120 23800 (1961) 157 (1981) 1730 199 269 373 423 772 1450 1760 3790 7980
2026-05-09 11:45 5.36 1110 23800 (1961) 157 (1981) 1730 199 269 373 423 772 1450 1760 3790 7980
2026-05-09 10:45 5.30 1090 23800 (1961) 157 (1981) 1730 199 269 373 423 772 1450 1760 3790 7980
2026-05-09 09:45 5.23 1060 23800 (1961) 157 (1981) 1730 199 269 373 423 772 1450 1760 3790 7980
2026-05-09 08:45 5.17 1040 23800 (1961) 157 (1981) 1730 199 269 373 423 772 1450 1760 3790 7980
2026-05-09 07:45 5.13 1020 23800 (1961) 157 (1981) 1730 199 269 373 423 772 1450 1760 3790 7980
2026-05-09 06:45 5.12 1020 23800 (1961) 157 (1981) 1730 199 269 373 423 772 1450 1760 3790 7980
2026-05-09 05:45 5.09 1010 23800 (1961) 157 (1981) 1730 199 269 373 423 772 1450 1760 3790 7980
2026-05-09 04:45 5.04 987 23800 (1961) 157 (1981) 1730 199 269 373 423 772 1450 1760 3790 7980
2026-05-09 03:45 5.00 972 23800 (1961) 157 (1981) 1730 199 269 373 423 772 1450 1760 3790 7980
2026-05-09 02:45 4.94 950 23800 (1961) 157 (1981) 1730 199 269 373 423 772 1450 1760 3790 7980
2026-05-09 01:45 4.87 925 23800 (1961) 157 (1981) 1730 199 269 373 423 772 1450 1760 3790 7980
2026-05-09 00:45 4.80 900 23800 (1961) 157 (1981) 1730 199 269 373 423 772 1450 1760 3790 7980
2026-05-08 23:45 4.71 868 23800 (1961) 157 (1981) 1730 199 269 373 423 772 1450 1760 3790 7980
2026-05-08 22:45 4.70 865 23100 (1961) 163 (1981) 1780 207 274 375 423 856 1780 2080 4430 7850
2026-05-08 21:45 4.67 854 23100 (1961) 163 (1981) 1780 207 274 375 423 856 1780 2080 4430 7850
2026-05-08 20:45 4.66 851 23100 (1961) 163 (1981) 1780 207 274 375 423 856 1780 2080 4430 7850
2026-05-08 19:45 4.67 854 23100 (1961) 163 (1981) 1780 207 274 375 423 856 1780 2080 4430 7850
2026-05-08 18:45 4.68 858 23100 (1961) 163 (1981) 1780 207 274 375 423 856 1780 2080 4430 7850
2026-05-08 17:45 4.69 861 23100 (1961) 163 (1981) 1780 207 274 375 423 856 1780 2080 4430 7850
2026-05-08 16:45 4.71 868 23100 (1961) 163 (1981) 1780 207 274 375 423 856 1780 2080 4430 7850
2026-05-08 15:45 4.72 872 23100 (1961) 163 (1981) 1780 207 274 375 423 856 1780 2080 4430 7850
2026-05-08 14:45 4.74 879 23100 (1961) 163 (1981) 1780 207 274 375 423 856 1780 2080 4430 7850
2026-05-08 13:45 4.76 886 23100 (1961) 163 (1981) 1780 207 274 375 423 856 1780 2080 4430 7850
2026-05-08 12:45 4.78 893 23100 (1961) 163 (1981) 1780 207 274 375 423 856 1780 2080 4430 7850
2026-05-08 11:45 4.79 896 23100 (1961) 163 (1981) 1780 207 274 375 423 856 1780 2080 4430 7850
2026-05-08 10:45 4.81 903 23100 (1961) 163 (1981) 1780 207 274 375 423 856 1780 2080 4430 7850
2026-05-08 09:45 4.83 911 23100 (1961) 163 (1981) 1780 207 274 375 423 856 1780 2080 4430 7850
2026-05-08 08:45 4.84 914 23100 (1961) 163 (1981) 1780 207 274 375 423 856 1780 2080 4430 7850
2026-05-08 07:45 4.86 921 23100 (1961) 163 (1981) 1780 207 274 375 423 856 1780 2080 4430 7850
2026-05-08 06:45 4.87 925 23100 (1961) 163 (1981) 1780 207 274 375 423 856 1780 2080 4430 7850
2026-05-08 05:45 4.89 932 23100 (1961) 163 (1981) 1780 207 274 375 423 856 1780 2080 4430 7850
2026-05-08 04:45 4.91 939 23100 (1961) 163 (1981) 1780 207 274 375 423 856 1780 2080 4430 7850
2026-05-08 03:45 4.92 943 23100 (1961) 163 (1981) 1780 207 274 375 423 856 1780 2080 4430 7850
2026-05-08 02:45 4.93 947 23100 (1961) 163 (1981) 1780 207 274 375 423 856 1780 2080 4430 7850
2026-05-08 01:45 4.95 954 23100 (1961) 163 (1981) 1780 207 274 375 423 856 1780 2080 4430 7850
2026-05-08 00:45 4.95 954 23100 (1961) 163 (1981) 1780 207 274 375 423 856 1780 2080 4430 7850
2026-05-07 23:45 4.97 961 23100 (1961) 163 (1981) 1780 207 274 375 423 856 1780 2080 4430 7850
2026-05-07 22:45 4.97 961 14900 (1961) 163 (1981) 1790 216 292 401 434 871 1630 1850 3880 9980
2026-05-07 21:45 4.99 969 14900 (1961) 163 (1981) 1790 216 292 401 434 871 1630 1850 3880 9980
2026-05-07 20:45 5.00 972 14900 (1961) 163 (1981) 1790 216 292 401 434 871 1630 1850 3880 9980
2026-05-07 19:45 5.01 976 14900 (1961) 163 (1981) 1790 216 292 401 434 871 1630 1850 3880 9980
2026-05-07 18:45 5.02 980 14900 (1961) 163 (1981) 1790 216 292 401 434 871 1630 1850 3880 9980
2026-05-07 17:45 5.03 984 14900 (1961) 163 (1981) 1790 216 292 401 434 871 1630 1850 3880 9980
2026-05-07 16:45 5.04 987 14900 (1961) 163 (1981) 1790 216 292 401 434 871 1630 1850 3880 9980
2026-05-07 15:45 5.05 991 14900 (1961) 163 (1981) 1790 216 292 401 434 871 1630 1850 3880 9980
2026-05-07 14:45 5.05 991 14900 (1961) 163 (1981) 1790 216 292 401 434 871 1630 1850 3880 9980
2026-05-07 13:45 5.07 998 14900 (1961) 163 (1981) 1790 216 292 401 434 871 1630 1850 3880 9980
2026-05-07 12:45 5.05 991 14900 (1961) 163 (1981) 1790 216 292 401 434 871 1630 1850 3880 9980
2026-05-07 11:45 5.05 991 14900 (1961) 163 (1981) 1790 216 292 401 434 871 1630 1850 3880 9980
2026-05-07 10:45 5.04 987 14900 (1961) 163 (1981) 1790 216 292 401 434 871 1630 1850 3880 9980
2026-05-07 09:45 5.01 976 14900 (1961) 163 (1981) 1790 216 292 401 434 871 1630 1850 3880 9980
2026-05-07 08:45 4.99 969 14900 (1961) 163 (1981) 1790 216 292 401 434 871 1630 1850 3880 9980
2026-05-07 07:45 4.95 954 14900 (1961) 163 (1981) 1790 216 292 401 434 871 1630 1850 3880 9980
2026-05-07 06:45 4.92 943 14900 (1961) 163 (1981) 1790 216 292 401 434 871 1630 1850 3880 9980
2026-05-07 05:45 4.88 928 14900 (1961) 163 (1981) 1790 216 292 401 434 871 1630 1850 3880 9980
2026-05-07 04:45 4.84 914 14900 (1961) 163 (1981) 1790 216 292 401 434 871 1630 1850 3880 9980
2026-05-07 03:45 4.80 900 14900 (1961) 163 (1981) 1790 216 292 401 434 871 1630 1850 3880 9980
2026-05-07 02:45 4.77 889 14900 (1961) 163 (1981) 1790 216 292 401 434 871 1630 1850 3880 9980
2026-05-07 01:45 4.75 882 14900 (1961) 163 (1981) 1790 216 292 401 434 871 1630 1850 3880 9980
2026-05-07 00:45 4.73 875 14900 (1961) 163 (1981) 1790 216 292 401 434 871 1630 1850 3880 9980
2026-05-06 23:45 4.70 865 14900 (1961) 163 (1981) 1790 216 292 401 434 871 1630 1850 3880 9980
2026-05-06 22:45 4.68 858 20600 (2017) 166 (1981) 1640 219 284 367 415 765 1580 2050 3670 6930
2026-05-06 21:45 4.67 854 20600 (2017) 166 (1981) 1640 219 284 367 415 765 1580 2050 3670 6930
2026-05-06 20:45 4.66 851 20600 (2017) 166 (1981) 1640 219 284 367 415 765 1580 2050 3670 6930
2026-05-06 19:45 4.64 844 20600 (2017) 166 (1981) 1640 219 284 367 415 765 1580 2050 3670 6930
2026-05-06 18:45 4.63 840 20600 (2017) 166 (1981) 1640 219 284 367 415 765 1580 2050 3670 6930
2026-05-06 17:45 4.62 837 20600 (2017) 166 (1981) 1640 219 284 367 415 765 1580 2050 3670 6930
2026-05-06 16:45 4.60 830 20600 (2017) 166 (1981) 1640 219 284 367 415 765 1580 2050 3670 6930
2026-05-06 15:45 4.59 827 20600 (2017) 166 (1981) 1640 219 284 367 415 765 1580 2050 3670 6930
2026-05-06 14:45 4.57 820 20600 (2017) 166 (1981) 1640 219 284 367 415 765 1580 2050 3670 6930
2026-05-06 13:45 4.57 820 20600 (2017) 166 (1981) 1640 219 284 367 415 765 1580 2050 3670 6930
2026-05-06 12:45 4.57 820 20600 (2017) 166 (1981) 1640 219 284 367 415 765 1580 2050 3670 6930
2026-05-06 11:45 4.57 820 20600 (2017) 166 (1981) 1640 219 284 367 415 765 1580 2050 3670 6930
2026-05-06 10:45 4.57 820 20600 (2017) 166 (1981) 1640 219 284 367 415 765 1580 2050 3670 6930
2026-05-06 09:45 4.56 817 20600 (2017) 166 (1981) 1640 219 284 367 415 765 1580 2050 3670 6930
2026-05-06 08:45 4.57 820 20600 (2017) 166 (1981) 1640 219 284 367 415 765 1580 2050 3670 6930
2026-05-06 07:45 4.57 820 20600 (2017) 166 (1981) 1640 219 284 367 415 765 1580 2050 3670 6930
2026-05-06 06:45 4.58 823 20600 (2017) 166 (1981) 1640 219 284 367 415 765 1580 2050 3670 6930
2026-05-06 05:45 4.59 827 20600 (2017) 166 (1981) 1640 219 284 367 415 765 1580 2050 3670 6930
2026-05-06 04:45 4.58 823 20600 (2017) 166 (1981) 1640 219 284 367 415 765 1580 2050 3670 6930
2026-05-06 03:45 4.59 827 20600 (2017) 166 (1981) 1640 219 284 367 415 765 1580 2050 3670 6930
2026-05-06 02:45 4.60 830 20600 (2017) 166 (1981) 1640 219 284 367 415 765 1580 2050 3670 6930
2026-05-06 01:45 4.61 834 20600 (2017) 166 (1981) 1640 219 284 367 415 765 1580 2050 3670 6930
2026-05-06 00:45 4.61 834 20600 (2017) 166 (1981) 1640 219 284 367 415 765 1580 2050 3670 6930
2026-05-05 23:45 4.61 834 20600 (2017) 166 (1981) 1640 219 284 367 415 765 1580 2050 3670 6930
2026-05-05 22:45 4.62 837 21200 (2013) 168 (1981) 1670 237 307 404 440 805 1690 2280 3360 5850
2026-05-05 21:45 4.61 834 21200 (2013) 168 (1981) 1670 237 307 404 440 805 1690 2280 3360 5850
2026-05-05 20:45 4.62 837 21200 (2013) 168 (1981) 1670 237 307 404 440 805 1690 2280 3360 5850
2026-05-05 19:45 4.63 840 21200 (2013) 168 (1981) 1670 237 307 404 440 805 1690 2280 3360 5850
2026-05-05 18:45 4.62 837 21200 (2013) 168 (1981) 1670 237 307 404 440 805 1690 2280 3360 5850
2026-05-05 17:45 4.62 837 21200 (2013) 168 (1981) 1670 237 307 404 440 805 1690 2280 3360 5850
2026-05-05 16:45 4.62 837 21200 (2013) 168 (1981) 1670 237 307 404 440 805 1690 2280 3360 5850
2026-05-05 15:45 4.63 840 21200 (2013) 168 (1981) 1670 237 307 404 440 805 1690 2280 3360 5850
2026-05-05 14:45 4.64 844 21200 (2013) 168 (1981) 1670 237 307 404 440 805 1690 2280 3360 5850
2026-05-05 13:45 4.66 851 21200 (2013) 168 (1981) 1670 237 307 404 440 805 1690 2280 3360 5850
2026-05-05 12:45 4.67 854 21200 (2013) 168 (1981) 1670 237 307 404 440 805 1690 2280 3360 5850
2026-05-05 11:45 4.68 858 21200 (2013) 168 (1981) 1670 237 307 404 440 805 1690 2280 3360 5850
2026-05-05 10:45 4.69 861 21200 (2013) 168 (1981) 1670 237 307 404 440 805 1690 2280 3360 5850
2026-05-05 09:45 4.70 865 21200 (2013) 168 (1981) 1670 237 307 404 440 805 1690 2280 3360 5850
2026-05-05 08:45 4.71 868 21200 (2013) 168 (1981) 1670 237 307 404 440 805 1690 2280 3360 5850
2026-05-05 07:45 4.72 872 21200 (2013) 168 (1981) 1670 237 307 404 440 805 1690 2280 3360 5850
2026-05-05 06:45 4.71 868 21200 (2013) 168 (1981) 1670 237 307 404 440 805 1690 2280 3360 5850
2026-05-05 05:45 4.70 865 21200 (2013) 168 (1981) 1670 237 307 404 440 805 1690 2280 3360 5850
2026-05-05 04:45 4.72 872 21200 (2013) 168 (1981) 1670 237 307 404 440 805 1690 2280 3360 5850
2026-05-05 03:45 4.73 875 21200 (2013) 168 (1981) 1670 237 307 404 440 805 1690 2280 3360 5850
2026-05-05 02:45 4.74 879 21200 (2013) 168 (1981) 1670 237 307 404 440 805 1690 2280 3360 5850
2026-05-05 01:45 4.75 882 21200 (2013) 168 (1981) 1670 237 307 404 440 805 1690 2280 3360 5850
2026-05-05 00:45 4.76 886 21200 (2013) 168 (1981) 1670 237 307 404 440 805 1690 2280 3360 5850
2026-05-04 23:45 4.78 893 21200 (2013) 168 (1981) 1670 237 307 404 440 805 1690 2280 3360 5850
2026-05-04 22:45 4.78 893 13600 (2013) 166 (1981) 1810 261 310 413 460 829 1960 2300 5220 7930
2026-05-04 21:45 4.79 896 13600 (2013) 166 (1981) 1810 261 310 413 460 829 1960 2300 5220 7930
2026-05-04 20:45 4.81 903 13600 (2013) 166 (1981) 1810 261 310 413 460 829 1960 2300 5220 7930
2026-05-04 19:45 4.82 907 13600 (2013) 166 (1981) 1810 261 310 413 460 829 1960 2300 5220 7930
2026-05-04 18:45 4.83 911 13600 (2013) 166 (1981) 1810 261 310 413 460 829 1960 2300 5220 7930
2026-05-04 17:45 4.85 918 13600 (2013) 166 (1981) 1810 261 310 413 460 829 1960 2300 5220 7930
2026-05-04 16:45 4.86 921 13600 (2013) 166 (1981) 1810 261 310 413 460 829 1960 2300 5220 7930
2026-05-04 15:45 4.87 925 13600 (2013) 166 (1981) 1810 261 310 413 460 829 1960 2300 5220 7930
2026-05-04 14:45 4.88 928 13600 (2013) 166 (1981) 1810 261 310 413 460 829 1960 2300 5220 7930
2026-05-04 13:45 4.89 932 13600 (2013) 166 (1981) 1810 261 310 413 460 829 1960 2300 5220 7930
2026-05-04 12:45 4.91 939 13600 (2013) 166 (1981) 1810 261 310 413 460 829 1960 2300 5220 7930
2026-05-04 11:45 4.92 943 13600 (2013) 166 (1981) 1810 261 310 413 460 829 1960 2300 5220 7930
2026-05-04 10:45 4.93 947 13600 (2013) 166 (1981) 1810 261 310 413 460 829 1960 2300 5220 7930
2026-05-04 09:45 4.94 950 13600 (2013) 166 (1981) 1810 261 310 413 460 829 1960 2300 5220 7930
2026-05-04 08:45 4.95 954 13600 (2013) 166 (1981) 1810 261 310 413 460 829 1960 2300 5220 7930
2026-05-04 07:45 4.97 961 13600 (2013) 166 (1981) 1810 261 310 413 460 829 1960 2300 5220 7930
2026-05-04 06:45 4.98 965 13600 (2013) 166 (1981) 1810 261 310 413 460 829 1960 2300 5220 7930
2026-05-04 05:45 4.99 969 13600 (2013) 166 (1981) 1810 261 310 413 460 829 1960 2300 5220 7930
2026-05-04 04:45 5.01 976 13600 (2013) 166 (1981) 1810 261 310 413 460 829 1960 2300 5220 7930
2026-05-04 03:45 5.03 984 13600 (2013) 166 (1981) 1810 261 310 413 460 829 1960 2300 5220 7930
2026-05-04 02:45 5.04 987 13600 (2013) 166 (1981) 1810 261 310 413 460 829 1960 2300 5220 7930
2026-05-04 01:45 5.05 991 13600 (2013) 166 (1981) 1810 261 310 413 460 829 1960 2300 5220 7930
2026-05-04 00:45 5.07 998 13600 (2013) 166 (1981) 1810 261 310 413 460 829 1960 2300 5220 7930
2026-05-03 23:45 5.09 1010 13600 (2013) 166 (1981) 1810 261 310 413 460 829 1960 2300 5220 7930
2026-05-03 22:45 5.10 1010 24000 (1983) 175 (1981) 2030 266 319 412 470 832 1760 2420 5360 8100
2026-05-03 21:45 5.11 1010 24000 (1983) 175 (1981) 2030 266 319 412 470 832 1760 2420 5360 8100
2026-05-03 20:45 5.13 1020 24000 (1983) 175 (1981) 2030 266 319 412 470 832 1760 2420 5360 8100
2026-05-03 19:45 5.15 1030 24000 (1983) 175 (1981) 2030 266 319 412 470 832 1760 2420 5360 8100
2026-05-03 18:45 5.16 1030 24000 (1983) 175 (1981) 2030 266 319 412 470 832 1760 2420 5360 8100
2026-05-03 17:45 5.18 1040 24000 (1983) 175 (1981) 2030 266 319 412 470 832 1760 2420 5360 8100
2026-05-03 16:45 5.19 1040 24000 (1983) 175 (1981) 2030 266 319 412 470 832 1760 2420 5360 8100
2026-05-03 15:45 5.20 1050 24000 (1983) 175 (1981) 2030 266 319 412 470 832 1760 2420 5360 8100
2026-05-03 14:45 5.23 1060 24000 (1983) 175 (1981) 2030 266 319 412 470 832 1760 2420 5360 8100
2026-05-03 13:45 5.24 1060 24000 (1983) 175 (1981) 2030 266 319 412 470 832 1760 2420 5360 8100
2026-05-03 12:45 5.26 1070 24000 (1983) 175 (1981) 2030 266 319 412 470 832 1760 2420 5360 8100
2026-05-03 11:45 5.27 1070 24000 (1983) 175 (1981) 2030 266 319 412 470 832 1760 2420 5360 8100
2026-05-03 10:45 5.29 1080 24000 (1983) 175 (1981) 2030 266 319 412 470 832 1760 2420 5360 8100
2026-05-03 09:45 5.31 1090 24000 (1983) 175 (1981) 2030 266 319 412 470 832 1760 2420 5360 8100
2026-05-03 08:45 5.33 1100 24000 (1983) 175 (1981) 2030 266 319 412 470 832 1760 2420 5360 8100
2026-05-03 07:45 5.34 1100 24000 (1983) 175 (1981) 2030 266 319 412 470 832 1760 2420 5360 8100
2026-05-03 06:45 5.36 1110 24000 (1983) 175 (1981) 2030 266 319 412 470 832 1760 2420 5360 8100
2026-05-03 05:45 5.38 1120 24000 (1983) 175 (1981) 2030 266 319 412 470 832 1760 2420 5360 8100
2026-05-03 04:45 5.40 1130 24000 (1983) 175 (1981) 2030 266 319 412 470 832 1760 2420 5360 8100
2026-05-03 03:45 5.42 1130 24000 (1983) 175 (1981) 2030 266 319 412 470 832 1760 2420 5360 8100
2026-05-03 02:45 5.43 1140 24000 (1983) 175 (1981) 2030 266 319 412 470 832 1760 2420 5360 8100
2026-05-03 01:45 5.45 1150 24000 (1983) 175 (1981) 2030 266 319 412 470 832 1760 2420 5360 8100
2026-05-03 00:45 5.46 1150 24000 (1983) 175 (1981) 2030 266 319 412 470 832 1760 2420 5360 8100
2026-05-02 23:45 5.48 1160 24000 (1983) 175 (1981) 2030 266 319 412 470 832 1760 2420 5360 8100

A total of 176 rows are displayed for years 1923 through 2025.